Weather History for KMMT - August, 2013

Change the Weather History Date:

Tuesday, August 13, 2013

  Actual Average Record
Temperature  
Mean Temperature 82 °F -  
Max Temperature 93 °F 88 °F 100 °F (1999)
Min Temperature 73 °F 70 °F 64 °F (2008)
Cooling Degree Days 18    
Growing Degree Days 32 (Base 50)    
Moisture  
Dew Point 74 °F    
Average Humidity 79    
Maximum Humidity 99    
Minimum Humidity 50    
Precipitation  
Precipitation 0.00 in - - ()
Sea Level Pressure  
Sea Level Pressure 29.91 in    
Wind  
Wind Speed 5 mph (SW)    
Max Wind Speed 13 mph    
Max Gust Speed 21 mph    
Visibility 10 miles    
Events      
Averages and records for this station are not official NWS values.
T = Trace of Precipitation, MM = Missing Value Source: NWS Daily Summary

Daily Weather History Graph

Daily Weather History Graph

Search for Another Location

Airport or City:

Trip Planner

Search our weather history database for the weather conditions in past years. The results will help you decide how hot, cold, wet, or windy it might be!

Date:

Astronomy

Aug. 13, 2013 Rise Set
Actual Time 6:43 AM EDT 8:11 PM EDT
Civil Twilight 6:17 AM EDT 8:38 PM EDT
Nautical Twilight 5:45 AM EDT 9:09 PM EDT
Astronomical Twilight 5:11 AM EDT 9:43 PM EDT
Moon 1:14 PM EDT (8/13) No Moon Set
Length of Visible Light 14h 21m
Length of Day
13h 28m
Waxing Crescent, 41% of the Moon is Illuminated
Aug 13
Waxing Crescent
Aug 14
First Quarter
Aug 20
Full
Aug 28
Last Quarter
Sep 5
New

Hourly Weather History & Observations

Time (EDT) Temp. Heat Index Dew Point Humidity Pressure Visibility Wind Dir Wind Speed Gust Speed Precip Events Conditions
12:58 AM 75.2 °F - 75.0 °F 99% 29.99 in 10.0 mi Calm Calm - N/A   Clear
1:58 AM 75.6 °F - 75.2 °F 99% 29.98 in 10.0 mi Calm Calm - N/A   Scattered Clouds
2:58 AM 76.1 °F - 75.0 °F 96% 29.96 in 10.0 mi WSW 4.6 mph - N/A   Clear
3:58 AM 76.1 °F - 74.8 °F 96% 29.97 in 10.0 mi SW 6.9 mph - N/A   Mostly Cloudy
4:58 AM 76.1 °F - 75.6 °F 98% 29.95 in 10.0 mi SSW 4.6 mph - N/A   Clear
5:58 AM 75.0 °F - 73.9 °F 96% 29.94 in 10.0 mi SSE 5.8 mph - N/A   Clear
6:58 AM 73.9 °F - 73.0 °F 97% 29.95 in 5.0 mi South 3.5 mph - N/A   Scattered Clouds
7:58 AM 75.0 °F - 73.9 °F 96% 29.95 in 7.0 mi SSW 4.6 mph - N/A   Scattered Clouds
8:58 AM 79.2 °F - 73.9 °F 84% 29.97 in 10.0 mi SW 8.1 mph - N/A   Scattered Clouds
9:58 AM 83.1 °F 90.1 °F 74.5 °F 75% 29.96 in 10.0 mi WSW 8.1 mph - N/A   Scattered Clouds
10:58 AM 86.9 °F 94.1 °F 73.0 °F 63% 29.95 in 10.0 mi WSW 8.1 mph - N/A   Scattered Clouds
11:58 AM 89.2 °F 99.0 °F 74.5 °F 62% 29.95 in 10.0 mi SW 9.2 mph - N/A   Scattered Clouds
12:58 PM 90.3 °F 98.7 °F 73.0 °F 57% 29.92 in 10.0 mi WSW 9.2 mph 20.7 mph N/A   Mostly Cloudy
1:58 PM 91.9 °F 101.3 °F 73.6 °F 55% 29.90 in 10.0 mi SW 10.4 mph - N/A   Mostly Cloudy
2:58 PM 92.3 °F 99.2 °F 71.2 °F 50% 29.88 in 10.0 mi WSW 12.7 mph - N/A   Mostly Cloudy
3:58 PM 92.8 °F 104.1 °F 75.0 °F 56% 29.86 in 10.0 mi SSW 9.2 mph - N/A   Mostly Cloudy
4:58 PM 88.2 °F 97.4 °F 74.7 °F 64% 29.85 in 10.0 mi South 8.1 mph - N/A   Mostly Cloudy
5:58 PM 87.4 °F 96.7 °F 75.0 °F 66% 29.85 in 10.0 mi South 5.8 mph - N/A   Mostly Cloudy
6:58 PM 86.9 °F 97.3 °F 76.1 °F 70% 29.83 in 10.0 mi NNW 6.9 mph - N/A   Mostly Cloudy
7:58 PM 83.1 °F 88.9 °F 72.7 °F 71% 29.84 in 10.0 mi Variable 1.2 mph - N/A   Mostly Cloudy
8:58 PM 79.7 °F - 74.5 °F 84% 29.86 in 10.0 mi ESE 2.3 mph - N/A   Scattered Clouds
9:58 PM 78.1 °F - 74.7 °F 89% 29.87 in 10.0 mi NNW 1.2 mph - N/A   Scattered Clouds
10:58 PM 78.6 °F - 73.6 °F 84% 29.89 in 10.0 mi SSW 2.3 mph - N/A   Partly Cloudy
11:58 PM 78.3 °F - 74.1 °F 87% 29.88 in 10.0 mi SW 4.6 mph - N/A   Clear